Home   Weather   Vernier   Past weeks

Flag for Switzerland Past Weather in Vernier, Geneva, Switzerland — Yesterday and Last 2 Weeks

Now
27 °F

Ice fog.


Feels Like: 23 °F
Forecast: 19 / 41 °F
Wind: 3 mph from North

Location: Geneva Cointrin Airport

Current Time: Jan 20, 2017 at 11:24:22 pm

Latest Report: Jan 20, 2017 at 10:50 pm


Visibility: 3 mi

Pressure: 30.39 "Hg

Humidity: 86%

Dew Point: 23 °F

Location of VernierLocation

Past Weather in Vernier — Graph

°F

Vernier Temperature Yesterday

Maximum temperature yesterday: 28 °F (at 2:20 pm)
Minimum temperature yesterday: 27 °F (at 12:20 am)
Average temperature yesterday: 27 °F

High & Low Weather Summary for the Past Weeks

 TemperatureHumidityPressure
High45 °F (Jan 12, 1:50 pm)100% (Jan 9, 1:20 am)30.54 "Hg (Jan 9, 1:20 am)
Low18 °F (Jan 7, 8:20 am)53% (Jan 13, 1:50 am)29.65 "Hg (Jan 12, 10:50 pm)
Average30 °F79%30.20 "Hg
* Reported Jan 5 10:20 pm — Jan 20 10:20 pm, Vernier, Weather by CustomWeather, © 2017

Note: Actual official high and low records may vary slightly from our data, if they occured in-between our weather recording intervals... More about our weather records

Advertising

Vernier Weather History for the Previous 24 Hours

Scroll right to see more
 ConditionsComfort  
Time TempWeatherWind HumidityBarometerVisibility
10:20 pm
Fri, Jan 20
27 °FIce fog.3 mph86%30.39 "Hg3 mi
9:50 pm27 °FIce fog.6 mph86%30.39 "Hg3 mi
9:20 pm27 °FIce fog.3 mph86%30.39 "Hg3 mi
8:50 pm27 °FIce fog.3 mph86%30.39 "Hg3 mi
8:20 pm27 °FIce fog.3 mph86%30.39 "Hg3 mi
7:50 pm27 °FIce fog.5 mph86%30.39 "Hg3 mi
7:20 pm27 °FOvercast.3 mph86%30.39 "Hg4 mi
6:50 pm28 °FOvercast.3 mph80%30.39 "Hg4 mi
6:20 pm28 °FOvercast.3 mph80%30.39 "Hg4 mi
5:50 pm28 °FOvercast.2 mph80%30.39 "Hg4 mi
5:20 pm28 °FOvercast.3 mph80%30.39 "Hg4 mi
4:50 pm28 °FOvercast.3 mph80%30.39 "Hg5 mi
4:20 pm28 °FOvercast.2 mph80%30.39 "Hg5 mi
3:50 pm28 °FOvercast.3 mph80%30.39 "Hg5 mi
3:20 pm28 °FOvercast.1 mph80%30.39 "Hg5 mi
2:50 pm28 °FOvercast.3 mph80%30.39 "Hg5 mi
2:20 pm28 °FOvercast.3 mph80%30.39 "Hg5 mi
1:50 pm28 °FOvercast.2 mph80%30.39 "Hg5 mi
1:20 pm28 °FSnow flurries. Overcast.2 mph80%30.39 "Hg5 mi
12:50 pm28 °FOvercast.3 mph80%30.42 "Hg5 mi
12:20 pm27 °FOvercast.2 mph86%30.42 "Hg5 mi
11:50 am27 °FOvercast.2 mph86%30.42 "Hg5 mi
11:20 am27 °FOvercast.3 mph86%30.42 "Hg5 mi
10:50 am27 °FOvercast.3 mph80%30.42 "Hg5 mi
10:20 am27 °FOvercast.2 mph80%30.42 "Hg5 mi
9:50 am27 °FOvercast.3 mph80%30.42 "Hg5 mi
9:20 am27 °FOvercast.2 mph80%30.42 "Hg5 mi
8:50 am25 °FOvercast.2 mph86%30.42 "Hg5 mi
8:20 am25 °FOvercast.5 mph86%30.42 "Hg5 mi
7:50 am27 °FOvercast.3 mph80%30.42 "Hg5 mi
7:20 am27 °FOvercast.3 mph80%30.42 "Hg5 mi
6:50 am27 °FOvercast.3 mph80%30.39 "Hg5 mi
6:20 am27 °FOvercast.3 mph80%30.39 "Hg5 mi
5:50 am25 °FOvercast.2 mph86%30.39 "Hg5 mi
5:20 am25 °FPassing clouds.2 mph86%30.39 "Hg6 mi
4:50 am25 °FPassing clouds.3 mph80%30.39 "Hg6 mi
4:20 am25 °FPassing clouds.2 mph80%30.39 "Hg6 mi
3:50 am25 °FPassing clouds.1 mph80%30.39 "HgN/A
3:20 am25 °FOvercast.3 mph80%30.42 "HgN/A
2:50 am25 °FPassing clouds.2 mph80%30.42 "HgN/A
2:20 am25 °FPassing clouds.2 mph80%30.42 "HgN/A
1:50 am25 °FOvercast.3 mph80%30.42 "HgN/A
1:20 am25 °FPassing clouds.5 mph80%30.42 "HgN/A
12:50 am25 °FOvercast.3 mph80%30.42 "HgN/A
12:20 am27 °FOvercast.3 mph74%30.42 "HgN/A
11:50 pm
Thu, Jan 19
27 °FOvercast.5 mph74%30.42 "HgN/A
11:20 pm27 °FOvercast.5 mph74%30.42 "HgN/A
Weather by CustomWeather, © 2017

See weather overviewHow to use our weather pages